Location: Unnamed
(25.2826°S, 57.6099°W)
Time: 23:22:39
(UTC-04:00)

Envisat - Pass Details

Date: 25 January 2026
Orbit: 761 x 763 km, 98.4° (Epoch: 18 February)

Event Time Altitude Azimuth Distance (km) Brightness Sun altitude
Exits shadow 02:07:13 15° 197° (SSW) 1,963 5.4 -36.4°
Drops below altitude 10° 02:08:06 10° 196° (SSW) 2,314 5.8 -36.3°
Sets 02:10:26 0° 194° (SSW) 3,247 6.7 -36.0°
